FW9290 Weather Reports


time (UTC)temp
C
wind
direction
speed
KPH
gust
KPH
rain 1hr
cm
rain 24hr
cm
rain mn
cm
humidity
%
barometer
mb
20260510104535 23 0 0.0 1.6 0.00 0.00 0.00 94 1011.5
20260510104021 23 0 0.0 0.0 0.00 0.00 0.00 94 1011.5
20260510103519 23 0 0.0 0.0 0.00 0.00 0.00 94 1011.4
20260510103043 23 0 0.0 0.0 0.00 0.00 0.00 93 1011.3
20260510102521 23 0 0.0 0.0 0.00 0.00 0.00 93 1011.2
20260510102018 23 0 0.0 0.0 0.00 0.00 0.00 93 1011.3
20260510101533 23 0 0.0 0.0 0.00 0.00 0.00 93 1011.2
20260510101019 23 0 0.0 0.0 0.00 0.00 0.00 93 1011.2
20260510100519 23 0 0.0 0.0 0.00 0.00 0.00 93 1011.1
20260510100037 23 0 0.0 1.6 0.00 0.00 0.00 93 1011.1
20260510095518 23 0 0.0 1.6 0.00 0.00 0.00 93 1011.0
20260510095018 23 0 0.0 1.6 0.00 0.00 0.00 93 1011.0
20260510094543 23 0 0.0 1.6 0.00 0.00 0.00 93 1011.0
20260510094018 23 0 0.0 1.6 0.00 0.00 0.00 93 1011.2
20260510093518 23 0 0.0 1.6 0.00 0.00 0.00 93 1011.2
20260510093035 23 0 0.0 3.2 0.00 0.00 0.00 93 1011.1
20260510092518 23 0 0.0 3.2 0.00 0.00 0.00 93 1011.1
20260510092021 23 0 0.0 1.6 0.00 0.00 0.00 93 1011.2
20260510091537 23 0 0.0 1.6 0.00 0.00 0.00 93 1011.4
20260510091019 23 0 0.0 1.6 0.00 0.00 0.00 94 1011.4
20260510090519 23 0 0.0 1.6 0.00 0.00 0.00 94 1011.4
20260510090040 23 0 0.0 1.6 0.00 0.00 0.00 94 1011.5
20260510085519 23 0 0.0 1.6 0.00 0.00 0.00 94 1011.5
20260510085018 23 252 0.0 0.0 0.00 0.00 0.00 94 1011.6
20260510084549 23 0 0.0 0.0 0.00 0.00 0.00 94 1011.5
20260510084019 23 0 0.0 0.0 0.00 0.00 0.00 94 1011.5
20260510083521 23 0 0.0 0.0 0.00 0.00 0.00 94 1011.5
20260510083038 23 0 0.0 1.6 0.00 0.00 0.00 94 1011.4
20260510082519 23 0 0.0 1.6 0.00 0.00 0.00 94 1011.4
20260510082022 23 0 0.0 1.6 0.00 0.00 0.00 94 1011.4
20260510081536 23 0 0.0 1.6 0.00 0.00 0.00 93 1011.3
20260510081019 23 0 0.0 0.0 0.00 0.00 0.00 93 1011.3
20260510080520 23 0 0.0 0.0 0.00 0.00 0.00 93 1011.3
20260510080038 23 0 0.0 1.6 0.00 0.00 0.00 93 1011.2
20260510075522 23 0 0.0 1.6 0.00 0.00 0.00 93 1011.2
20260510075019 23 0 0.0 1.6 0.00 0.00 0.00 93 1011.2
20260510074552 23 0 0.0 1.6 0.00 0.00 0.00 92 1011.1
20260510074021 23 0 0.0 1.6 0.00 0.00 0.00 92 1011.1
20260510073523 23 0 0.0 1.6 0.00 0.00 0.00 92 1011.2
20260510073043 23 0 0.0 0.0 0.00 0.00 0.00 92 1011.2
20260510072520 23 0 0.0 0.0 0.00 0.00 0.00 92 1011.2
20260510072024 23 0 0.0 0.0 0.00 0.00 0.00 92 1011.2
20260510071544 23 0 0.0 1.6 0.00 0.00 0.00 92 1011.3
20260510071018 23 0 0.0 1.6 0.00 0.00 0.00 92 1011.3
20260510070522 23 0 0.0 1.6 0.00 0.00 0.00 92 1011.3
20260510070035 23 0 0.0 1.6 0.00 0.00 0.00 92 1011.4
20260510065519 23 0 0.0 1.6 0.00 0.00 0.00 92 1011.4
20260510065019 23 0 0.0 1.6 0.00 0.00 0.00 92 1011.3
20260510064542 23 279 0.0 1.6 0.00 0.00 0.00 92 1011.3
20260510064023 23 0 0.0 1.6 0.00 0.00 0.00 92 1011.2
20260510063519 23 0 0.0 1.6 0.00 0.00 0.00 92 1011.3
20260510063033 23 0 0.0 1.6 0.00 0.00 0.00 92 1011.4
20260510062518 23 0 0.0 0.0 0.00 0.00 0.00 92 1011.4
20260510062018 23 0 0.0 0.0 0.00 0.00 0.00 92 1011.5
20260510061537 23 0 0.0 0.0 0.00 0.00 0.00 92 1011.5
20260510061021 23 0 0.0 1.6 0.00 0.00 0.00 92 1011.6
20260510060521 23 0 0.0 1.6 0.00 0.00 0.00 92 1011.6
20260510060038 24 0 0.0 0.0 0.00 0.00 0.00 92 1011.7
20260510055518 24 0 0.0 0.0 0.00 0.00 0.00 92 1011.6
20260510055019 24 0 0.0 1.6 0.00 0.00 0.00 91 1011.7
20260510054535 24 0 0.0 1.6 0.00 0.00 0.00 91 1011.7
20260510054019 24 0 0.0 0.0 0.00 0.00 0.00 91 1011.7
20260510053519 24 0 0.0 1.6 0.00 0.00 0.00 91 1011.8
20260510053041 24 0 0.0 1.6 0.00 0.00 0.00 91 1011.9
20260510052519 24 73 0.0 1.6 0.00 0.00 0.00 91 1011.9
20260510052019 24 0 0.0 1.6 0.00 0.00 0.00 91 1011.9
20260510051541 24 69 0.0 3.2 0.00 0.00 0.00 91 1011.9
20260510051018 24 79 0.0 3.2 0.00 0.00 0.00 90 1011.9
20260510050521 24 0 0.0 4.8 0.00 0.00 0.00 90 1011.9
20260510050039 25 0 0.0 4.8 0.00 0.00 0.00 90 1012.0
20260510045521 25 0 0.0 4.8 0.00 0.00 0.00 89 1012.1
20260510045021 25 66 0.0 3.2 0.00 0.00 0.00 89 1012.1
20260510044540 25 0 0.0 3.2 0.00 0.00 0.00 89 1012.2
20260510044018 25 0 0.0 3.2 0.00 0.00 0.00 88 1012.3
20260510043518 25 0 0.0 3.2 0.00 0.00 0.00 88 1012.5
20260510043044 25 0 0.0 3.2 0.00 0.00 0.00 88 1012.4
20260510042520 25 58 0.0 3.2 0.00 0.00 0.00 87 1012.4
20260510042021 25 0 0.0 3.2 0.00 0.00 0.00 87 1012.3
20260510041544 25 0 0.0 3.2 0.00 0.00 0.00 87 1012.2
20260510041019 25 0 0.0 1.6 0.00 0.00 0.00 88 1012.0
20260510040519 25 0 0.0 3.2 0.00 0.00 0.00 87 1011.9
20260510040037 25 0 0.0 3.2 0.00 0.00 0.00 87 1011.9
20260510035519 25 0 0.0 3.2 0.00 0.00 0.00 87 1012.1
20260510035019 25 0 0.0 3.2 0.00 0.00 0.00 86 1012.1
20260510034536 25 46 0.0 3.2 0.00 0.00 0.00 86 1012.0
20260510034019 25 0 0.0 6.4 0.00 0.00 0.00 85 1012.2
20260510033518 26 0 0.0 6.4 0.00 0.00 0.00 85 1012.2
20260510033036 26 37 0.0 8.0 0.00 0.00 0.00 84 1012.1
20260510032519 26 55 1.6 8.0 0.00 0.00 0.00 83 1012.3
20260510032019 26 0 1.6 8.0 0.00 0.00 0.00 81 1012.3
20260510031535 26 0 1.6 8.0 0.00 0.00 0.00 79 1012.1
20260510031020 26 0 0.0 3.2 0.00 0.00 0.00 77 1012.1
20260510030522 26 0 0.0 4.8 0.00 0.00 0.00 76 1012.0
20260510030033 26 0 0.0 4.8 0.00 0.00 0.00 76 1012.0
20260510025519 26 94 0.0 3.2 0.00 0.00 0.00 75 1011.9
20260510025021 26 80 0.0 3.2 0.00 0.00 0.00 75 1011.9
20260510024547 26 0 0.0 3.2 0.00 0.00 0.00 74 1011.7
20260510024020 26 0 0.0 1.6 0.00 0.00 0.00 73 1011.5
20260510023518 26 0 0.0 1.6 0.00 0.00 0.00 73 1011.3
20260510023035 26 0 0.0 9.7 0.00 0.00 0.00 73 1011.3
20260510022521 26 0 0.0 9.7 0.00 0.00 0.00 73 1011.2
20260510022021 25 85 0.0 4.8 0.00 0.00 0.00 75 1011.0
20260510021535 25 0 0.0 1.6 0.00 0.00 0.00 76 1010.8
20260510021019 25 0 0.0 1.6 0.00 0.00 0.00 77 1010.6
20260510020518 24 0 0.0 1.6 0.00 0.00 0.00 78 1010.5
20260510020035 24 0 0.0 0.0 0.00 0.00 0.00 79 1010.2
20260510015520 24 0 0.0 0.0 0.00 0.00 0.00 81 1010.2
20260510015020 24 0 0.0 0.0 0.00 0.00 0.00 80 1010.1
20260510014539 24 0 0.0 0.0 0.00 0.00 0.00 80 1009.8
20260510014019 24 0 0.0 0.0 0.00 0.00 0.00 81 1009.7
20260510013519 24 0 0.0 0.0 0.00 0.00 0.00 79 1009.6
20260510013036 24 0 0.0 0.0 0.00 0.00 0.00 79 1009.6
20260510012518 24 0 0.0 1.6 0.00 0.00 0.00 79 1009.6
20260510012019 24 0 0.0 1.6 0.00 0.00 0.00 79 1009.4
20260510011601 24 0 0.0 0.0 0.00 0.00 0.00 80 1009.4
20260510011018 24 0 0.0 0.0 0.00 0.00 0.00 80 1009.4
20260510010518 24 0 0.0 0.0 0.00 0.00 0.00 79 1009.3
20260510010051 24 0 0.0 1.6 0.00 0.00 0.00 80 1009.1
20260510005519 24 0 0.0 1.6 0.00 0.00 0.00 79 1008.9
20260510005020 24 0 0.0 1.6 0.00 0.00 0.00 77 1008.8
20260510004535 25 334 0.0 0.0 0.00 0.00 0.00 77 1008.9
20260510004022 25 0 0.0 1.6 0.00 0.00 0.00 76 1008.8
20260510003520 25 0 0.0 1.6 0.00 0.00 0.00 75 1008.9
20260510003039 25 329 0.0 9.7 0.00 0.00 0.00 75 1009.2
20260510002519 26 0 0.0 9.7 0.00 0.00 0.00 70 1009.0
20260510002019 27 283 3.2 9.7 0.00 0.00 0.00 67 1009.2
20260510001536 28 141 3.2 6.4 0.00 0.00 0.00 66 1009.1
20260510001019 29 253 0.0 3.2 0.00 0.00 0.00 63 1009.0
20260510000520 29 0 0.0 1.6 0.00 0.00 0.00 63 1008.8
20260510000041 29 0 0.0 1.6 0.00 0.00 0.00 65 1008.7
20260509235519 30 0 0.0 1.6 0.00 0.00 0.00 64 1008.9
20260509235019 30 0 0.0 0.0 0.00 0.00 0.00 64 1008.3
20260509234553 30 0 0.0 0.0 0.00 0.00 0.00 63 1008.3
20260509234020 30 0 0.0 0.0 0.00 0.00 0.00 62 1008.5
20260509233519 30 0 0.0 1.6 0.00 0.00 0.00 61 1008.5
20260509233036 30 0 0.0 1.6 0.00 0.00 0.00 60 1008.3
20260509232519 30 0 0.0 1.6 0.00 0.00 0.00 61 1008.3
20260509232019 30 0 0.0 1.6 0.00 0.00 0.00 60 1008.2
20260509231540 31 0 0.0 1.6 0.00 0.00 0.00 59 1008.3
20260509231019 31 0 0.0 1.6 0.00 0.00 0.00 58 1008.4
20260509230519 31 0 0.0 1.6 0.00 0.00 0.00 59 1008.3
20260509230037 31 0 0.0 1.6 0.00 0.00 0.00 58 1008.3
20260509225520 31 252 0.0 0.0 0.00 0.00 0.00 58 1008.1
20260509225018 31 0 0.0 1.6 0.00 0.00 0.00 57 1008.1
20260509224535 32 0 0.0 1.6 0.00 0.00 0.00 56 1008.1
20260509224021 32 0 0.0 1.6 0.00 0.00 0.00 56 1008.0
20260509223520 32 47 0.0 1.6 0.00 0.00 0.00 54 1008.0
20260509223036 32 260 0.0 1.6 0.00 0.00 0.00 54 1007.9
20260509222519 33 0 0.0 1.6 0.00 0.00 0.00 55 1007.8
20260509222019 32 0 0.0 1.6 0.00 0.00 0.00 53 1007.8
20260509221558 32 0 0.0 1.6 0.00 0.00 0.00 54 1007.8
20260509221018 32 0 0.0 1.6 0.00 0.00 0.00 56 1007.8
20260509220519 32 0 0.0 1.6 0.00 0.00 0.00 54 1007.9
20260509220043 33 0 0.0 1.6 0.00 0.00 0.00 56 1007.8
20260509215519 32 0 0.0 1.6 0.00 0.00 0.00 57 1007.8
20260509215019 32 262 0.0 1.6 0.00 0.00 0.00 55 1007.9
20260509214539 32 0 0.0 1.6 0.00 0.00 0.00 54 1008.0
20260509214018 32 264 0.0 1.6 0.00 0.00 0.00 55 1007.9
20260509213518 32 0 0.0 3.2 0.00 0.00 0.00 55 1007.9
20260509213035 32 247 0.0 3.2 0.00 0.00 0.00 55 1008.0
20260509212526 32 271 1.6 3.2 0.00 0.00 0.00 55 1008.0
20260509212019 32 18 0.0 1.6 0.00 0.00 0.00 55 1008.0
20260509211533 32 262 0.0 3.2 0.00 0.00 0.00 55 1008.1
20260509211019 32 256 0.0 3.2 0.00 0.00 0.00 56 1008.1
20260509210520 32 255 0.0 3.2 0.00 0.00 0.00 56 1008.2
20260509210034 32 298 0.0 3.2 0.00 0.00 0.00 55 1008.3
20260509205518 32 0 0.0 3.2 0.00 0.00 0.00 54 1008.3
20260509205018 32 77 1.6 3.2 0.00 0.00 0.00 52 1008.4
20260509204535 32 307 0.0 1.6 0.00 0.00 0.00 52 1008.3
20260509204019 32 0 0.0 3.2 0.00 0.00 0.00 54 1008.5
20260509203518 32 270 0.0 3.2 0.00 0.00 0.00 54 1008.5
20260509203041 32 0 0.0 3.2 0.00 0.00 0.00 53 1008.6
20260509202518 32 28 0.0 1.6 0.00 0.00 0.00 52 1008.6
20260509202019 32 274 0.0 3.2 0.00 0.00 0.00 54 1008.6
20260509201535 32 289 0.0 3.2 0.00 0.00 0.00 56 1008.8
20260509201021 32 258 0.0 3.2 0.00 0.00 0.00 56 1008.7
20260509200518 32 357 0.0 3.2 0.00 0.00 0.00 58 1008.8
20260509200043 32 0 0.0 3.2 0.00 0.00 0.00 58 1008.9
20260509195520 32 255 0.0 3.2 0.00 0.03 0.00 56 1008.9
20260509195018 32 0 0.0 3.2 0.00 0.03 0.00 57 1009.0
20260509194533 32 0 0.0 3.2 0.00 0.03 0.00 58 1009.0
20260509194021 32 0 0.0 3.2 0.00 0.03 0.00 58 1009.0
20260509193521 31 0 0.0 4.8 0.00 0.03 0.00 59 1009.0
20260509193039 31 247 1.6 4.8 0.00 0.03 0.00 59 1009.1
20260509192519 31 248 0.0 4.8 0.00 0.03 0.00 60 1009.0
20260509192032 31 0 0.0 3.2 0.00 0.03 0.00 60 1009.1
20260509191539 31 0 0.0 3.2 0.00 0.03 0.00 63 1009.1
20260509191019 31 0 0.0 4.8 0.00 0.03 0.00 60 1009.2
20260509190521 31 217 0.0 4.8 0.00 0.03 0.00 65 1009.1
20260509190044 31 0 0.0 3.2 0.00 0.03 0.00 64 1009.2
20260509185523 31 18 0.0 6.4 0.00 0.05 0.00 65 1009.2
20260509185019 32 81 1.6 6.4 0.00 0.05 0.00 62 1009.2
20260509184540 31 0 0.0 3.2 0.00 0.05 0.00 63 1009.4
20260509184019 31 0 0.0 3.2 0.00 0.05 0.00 63 1009.5
20260509183519 31 251 0.0 1.6 0.00 0.05 0.00 64 1009.6
20260509183041 31 247 0.0 1.6 0.00 0.05 0.00 65 1009.8
20260509182519 31 52 0.0 1.6 0.00 0.05 0.00 66 1009.8
20260509182019 31 0 0.0 3.2 0.00 0.05 0.00 67 1009.9
20260509181539 31 0 0.0 3.2 0.00 0.05 0.00 69 1010.0
20260509181023 31 0 0.0 1.6 0.00 0.05 0.00 69 1010.1
20260509180519 30 0 0.0 1.6 0.00 0.05 0.00 71 1010.3
20260509180042 30 38 0.0 1.6 0.00 0.05 0.00 69 1010.5
20260509175521 31 0 0.0 1.6 0.00 0.08 0.00 70 1010.5
20260509175023 31 293 0.0 1.6 0.00 0.08 0.00 72 1010.4
20260509174540 30 0 0.0 1.6 0.00 0.08 0.00 73 1010.4
20260509174020 30 0 0.0 3.2 0.00 0.08 0.00 76 1010.5
20260509173520 29 0 0.0 4.8 0.00 0.08 0.00 76 1010.7
20260509173051 29 0 0.0 4.8 0.00 0.08 0.00 75 1010.8
20260509172519 28 274 0.0 3.2 0.00 0.08 0.00 77 1010.9
20260509172019 28 0 0.0 1.6 0.00 0.08 0.00 78 1011.0
20260509171546 28 0 0.0 1.6 0.00 0.08 0.00 80 1011.0
20260509171018 27 0 0.0 1.6 0.00 0.08 0.00 81 1011.1
20260509170519 27 0 0.0 0.0 0.00 0.08 0.00 84 1011.0
20260509170042 27 0 0.0 0.0 0.00 0.08 0.00 83 1011.0
20260509165521 27 0 0.0 0.0 0.00 0.08 0.00 85 1011.2
20260509165018 27 0 0.0 0.0 0.00 0.08 0.00 84 1011.2
20260509164540 27 0 0.0 0.0 0.00 0.08 0.00 84 1011.2
20260509164023 27 0 0.0 0.0 0.00 0.08 0.00 83 1011.2
20260509163518 27 0 0.0 0.0 0.00 0.08 0.00 83 1011.2
20260509163046 27 0 0.0 0.0 0.00 0.08 0.00 84 1011.0
20260509162519 27 0 0.0 0.0 0.00 0.08 0.00 84 1011.0
20260509162022 27 0 0.0 0.0 0.00 0.08 0.00 85 1010.9
20260509161537 27 0 0.0 0.0 0.00 0.08 0.00 87 1011.0
20260509161019 26 0 0.0 0.0 0.00 0.08 0.00 86 1010.9
20260509160519 26 0 0.0 0.0 0.00 0.08 0.00 86 1011.0
20260509160036 26 0 0.0 0.0 0.00 0.08 0.00 86 1011.1
20260509155518 26 0 0.0 0.0 0.00 0.08 0.00 87 1011.1
20260509155021 26 0 0.0 1.6 0.00 0.08 0.00 87 1011.1
20260509154535 26 0 0.0 1.6 0.00 0.08 0.00 87 1010.9
20260509154019 26 0 0.0 0.0 0.00 0.08 0.00 87 1010.9
20260509153518 26 0 0.0 0.0 0.00 0.08 0.00 89 1010.8
20260509153043 26 0 0.0 0.0 0.00 0.08 0.00 89 1010.7
20260509152518 26 0 0.0 0.0 0.00 0.08 0.00 88 1010.8
20260509152019 26 0 0.0 0.0 0.00 0.08 0.00 89 1010.7
20260509151537 25 0 0.0 1.6 0.00 0.08 0.00 89 1010.7
20260509151018 25 0 0.0 1.6 0.00 0.08 0.00 90 1010.8
20260509150519 25 0 0.0 1.6 0.00 0.08 0.00 91 1010.7
20260509150039 25 0 0.0 0.0 0.00 0.08 0.00 92 1010.9
20260509145519 25 0 0.0 1.6 0.00 0.08 0.00 91 1010.8
20260509145020 25 0 0.0 1.6 0.00 0.08 0.00 92 1010.9
20260509144544 25 0 0.0 1.6 0.00 0.08 0.00 92 1010.6
20260509144019 25 0 0.0 0.0 0.00 0.08 0.00 93 1010.3
20260509143520 25 0 0.0 0.0 0.00 0.08 0.00 93 1010.4
20260509143037 25 0 0.0 1.6 0.00 0.08 0.00 93 1010.3
20260509142518 25 0 0.0 1.6 0.00 0.08 0.00 93 1010.1
20260509142026 25 0 0.0 0.0 0.00 0.08 0.00 93 1010.2
20260509141544 25 0 0.0 0.0 0.00 0.08 0.00 93 1010.1
20260509141021 25 0 0.0 0.0 0.00 0.08 0.00 93 1009.9
20260509140518 25 0 0.0 0.0 0.00 0.08 0.00 93 1009.8
20260509140036 24 0 0.0 0.0 0.00 0.08 0.00 93 1009.8
20260509135520 24 0 0.0 1.6 0.00 0.08 0.00 94 1010.1
20260509135020 24 0 0.0 1.6 0.00 0.08 0.00 94 1010.1
20260509134550 24 0 0.0 1.6 0.00 0.08 0.00 94 1010.3
20260509134021 24 0 0.0 0.0 0.00 0.08 0.00 94 1010.5
20260509133519 24 0 0.0 0.0 0.00 0.08 0.00 94 1010.6
20260509133038 24 0 0.0 0.0 0.00 0.08 0.00 95 1010.9
20260509132519 24 0 0.0 0.0 0.00 0.08 0.00 95 1011.0
20260509132018 24 0 0.0 0.0 0.00 0.08 0.00 95 1011.2
20260509131551 24 0 0.0 0.0 0.00 0.08 0.00 95 1011.2
20260509131018 24 0 0.0 0.0 0.00 0.08 0.00 95 1011.1
20260509130522 23 0 0.0 1.6 0.00 0.08 0.00 96 1011.0
20260509130046 23 0 0.0 1.6 0.00 0.08 0.00 96 1010.8
20260509125518 23 0 0.0 1.6 0.00 0.08 0.00 96 1010.7
20260509125022 23 0 0.0 1.6 0.00 0.08 0.00 96 1010.7
20260509124541 23 0 0.0 0.0 0.00 0.08 0.00 96 1010.8
20260509124018 23 0 0.0 0.0 0.00 0.08 0.00 96 1010.9
20260509123518 23 0 0.0 1.6 0.00 0.08 0.00 96 1010.8
20260509123045 23 0 0.0 1.6 0.00 0.08 0.00 96 1010.8
20260509122549 23 0 0.0 0.0 0.00 0.08 0.00 96 1010.8
20260509122019 23 0 0.0 0.0 0.00 0.08 0.00 96 1010.8
20260509121537 23 0 0.0 0.0 0.00 0.08 0.00 96 1010.9
20260509121019 23 0 0.0 0.0 0.00 0.08 0.00 96 1010.8
20260509120521 23 0 0.0 0.0 0.00 0.08 0.00 96 1010.7
20260509120035 23 0 0.0 0.0 0.00 0.08 0.00 96 1010.5
20260509115518 23 0 0.0 0.0 0.00 0.08 0.00 96 1010.2
20260509115021 23 0 0.0 0.0 0.00 0.08 0.00 96 1010.3
20260509114535 23 0 0.0 0.0 0.00 0.08 0.00 96 1010.3
20260509114019 23 0 0.0 0.0 0.00 0.08 0.00 96 1010.3
20260509113521 23 0 0.0 0.0 0.00 0.08 0.00 96 1010.4
20260509113035 23 0 0.0 0.0 0.00 0.08 0.00 96 1010.6
20260509112518 23 0 0.0 0.0 0.00 0.08 0.00 96 1010.8
20260509112018 23 0 0.0 0.0 0.00 0.08 0.00 96 1010.5
20260509111535 23 0 0.0 0.0 0.00 0.08 0.00 96 1010.3
20260509111020 23 0 0.0 0.0 0.00 0.08 0.00 96 1010.2
20260509110519 23 0 0.0 0.0 0.00 0.08 0.00 96 1010.1
20260509110043 23 0 0.0 0.0 0.00 0.08 0.00 96 1010.0
20260509105519 23 0 0.0 0.0 0.00 0.08 0.00 96 1009.9
20260509105022 23 0 0.0 0.0 0.00 0.08 0.00 96 1009.9